Total_Precipitation_Accumulation
0.70 0.76 1.14 1.07 1.02 0.98 1.03 1.14 1.25 1.30 1.20 1.17 1.24 1.27 1.32 1.55 1.57 1.58 1.58 1.77 2.24 2.77 3.16 3.24 3.02 2.82 2.94 2.97 2.55 2.13 1.92 1.96 1.94 1.87 1.78 1.73 1.81 2.02 2.13 2.30 2.36 1.74 1.55
0.49 0.67 0.93 0.87 0.76 0.76 0.81 0.91 0.99 1.09 1.08 1.08 1.10 1.14 1.25 1.44 1.50 1.54 1.59 1.76 2.07 2.48 2.70 2.62 2.48 2.43 2.42 2.29 2.10 2.01 1.99 2.07 2.20 2.17 2.23 2.05 2.12 2.23 2.17 2.20 2.33 1.69 1.55
0.49 0.46 0.56 0.71 0.60 0.59 0.62 0.70 0.82 0.96 1.02 1.06 0.97 1.07 1.25 1.44 1.55 1.72 1.80 1.85 2.04 2.31 2.45 2.35 2.21 2.17 2.08 2.03 1.90 1.92 1.94 2.14 2.43 2.58 2.82 2.08 1.63 2.12 2.12 2.10 1.91 1.53 1.42
0.38 0.26 0.31 0.50 0.55 0.53 0.58 0.65 0.75 0.85 0.92 0.95 0.93 0.98 1.15 1.40 1.60 1.82 1.93 1.90 1.93 2.08 2.30 2.27 2.27 2.18 2.07 1.93 1.87 1.92 1.99 2.24 2.51 2.81 2.65 1.83 1.23 1.56 1.78 1.76 1.58 1.29 1.24
0.26 0.21 0.30 0.42 0.44 0.44 0.48 0.61 0.76 0.86 0.91 0.92 0.90 0.99 1.09 1.37 1.68 1.81 1.83 1.84 1.81 1.87 2.04 2.20 2.13 1.88 1.86 1.82 1.93 2.05 2.19 2.45 2.68 2.55 1.86 1.84 1.78 1.67 1.52 1.48 1.46 1.27 1.18
0.24 0.19 0.27 0.39 0.38 0.39 0.46 0.59 0.72 0.79 0.88 0.94 0.96 1.02 1.14 1.39 1.65 1.78 1.64 1.60 1.68 1.68 1.73 1.88 1.82 1.63 1.70 1.85 2.01 2.14 2.34 2.55 2.50 1.84 1.47 1.56 1.50 1.56 1.55 1.49 1.39 1.27 1.17
0.19 0.22 0.26 0.38 0.40 0.43 0.47 0.56 0.71 0.79 0.89 1.01 1.06 1.10 1.20 1.43 1.66 1.72 1.59 1.71 1.68 1.61 1.63 1.65 1.66 1.71 1.96 2.04 2.04 2.10 2.33 2.46 1.90 1.55 1.58 1.69 1.47 1.47 1.75 1.77 1.53 1.28 1.06
0.19 0.21 0.27 0.38 0.41 0.46 0.54 0.64 0.74 0.86 0.90 0.97 1.02 1.04 1.13 1.37 1.55 1.52 1.56 1.67 1.52 1.53 1.59 1.50 1.45 1.54 1.79 1.98 1.95 2.01 2.16 2.07 1.52 1.33 1.44 1.55 1.28 1.42 1.86 1.89 1.70 1.52 1.23
0.30 0.33 0.36 0.37 0.39 0.51 0.62 0.76 0.84 0.89 0.92 0.91 0.94 1.00 1.12 1.19 1.34 1.40 1.46 1.50 1.46 1.50 1.42 1.32 1.36 1.37 1.47 1.73 1.81 1.87 1.97 1.93 1.54 1.38 1.22 1.35 1.21 1.46 1.83 1.77 1.61 1.58 1.37
0.55 0.58 0.52 0.45 0.48 0.52 0.58 0.80 0.93 0.93 0.91 0.90 0.99 1.08 1.24 1.25 1.22 1.25 1.20 1.28 1.34 1.29 1.29 1.34 1.34 1.34 1.43 1.57 1.76 1.86 1.88 1.62 1.38 1.32 1.29 1.21 1.24 1.61 1.88 1.79 1.70 1.69 1.54
0.85 0.90 0.78 0.73 0.63 0.68 0.73 0.83 0.97 0.97 1.01 1.12 1.20 1.30 1.57 1.77 1.53 1.52 1.30 1.45 1.46 1.41 1.41 1.47 1.50 1.54 1.51 1.58 1.82 1.85 1.63 1.51 1.64 1.38 1.28 1.23 1.47 1.85 2.00 2.01 1.98 1.97 1.88
1.13 0.97 0.96 1.00 0.86 0.92 0.98 1.10 1.42 1.32 1.33 1.52 1.59 1.58 1.90 2.05 1.96 1.52 1.61 1.90 1.96 1.97 1.88 1.89 2.02 1.98 1.67 1.45 1.75 2.08 1.70 1.60 1.57 1.34 1.18 1.32 1.63 1.98 2.11 2.16 2.01 2.02 1.99
1.28 1.14 1.27 1.28 1.21 1.28 1.56 1.37 1.49 1.72 1.85 1.86 1.87 2.05 2.25 1.96 1.78 1.68 1.87 2.17 2.23 2.22 2.13 2.24 2.47 2.25 2.15 2.13 2.18 2.20 1.88 1.76 1.61 1.36 1.45 1.69 1.93 2.27 2.42 2.30 2.15 2.04 1.92
1.83 1.83 1.77 1.81 1.84 1.86 1.71 1.70 1.59 1.61 1.73 1.91 2.01 2.03 2.23 2.32 2.29 2.14 2.21 2.21 2.22 2.32 2.57 2.50 2.63 2.71 2.71 2.46 2.33 2.34 2.14 1.95 1.84 1.77 1.99 2.18 2.22 2.50 2.73 2.54 2.33 2.16 2.03
2.62 2.74 2.67 2.52 2.35 2.44 2.45 2.28 1.87 1.94 1.87 1.85 2.15 2.22 2.29 2.46 2.57 2.50 2.40 2.44 2.14 2.15 2.47 2.77 2.64 2.77 2.91 2.74 2.43 2.29 2.26 2.10 2.02 1.94 2.13 2.35 2.23 2.30 2.61 2.66 2.59 2.40 2.30
3.41 3.85 3.59 3.33 3.02 2.94 2.96 2.84 2.69 2.33 2.22 2.04 2.22 2.30 2.48 2.68 2.78 2.74 2.55 2.52 2.17 2.06 2.28 2.56 2.59 2.82 2.83 2.82 2.43 2.17 2.08 2.19 2.16 2.01 2.11 2.38 2.38 2.15 2.28 2.61 2.85 2.87 2.71
4.04 4.59 4.31 4.15 4.08 3.85 3.74 3.35 2.88 2.55 2.35 2.49 2.61 2.68 2.78 2.87 2.97 2.90 2.76 2.51 2.34 2.35 2.42 2.43 2.53 2.95 2.79 2.65 2.46 2.38 2.29 2.29 2.17 2.07 2.08 2.26 2.09 2.03 2.04 2.19 2.55 2.85 3.14
4.21 4.60 4.94 4.62 4.97 4.88 4.62 4.12 3.56 3.26 3.15 2.99 2.92 3.01 2.84 2.85 2.87 3.01 2.70 2.37 2.47 2.59 2.68 2.68 2.69 2.89 2.92 3.01 2.90 2.71 2.48 2.35 1.88 1.81 1.85 1.93 2.10 1.84 1.99 2.23 2.38 2.52 3.06
4.48 4.97 5.46 5.67 5.75 5.34 4.97 4.54 4.21 3.99 3.71 3.26 2.81 2.66 2.55 2.38 2.23 2.32 2.14 2.06 2.13 2.25 2.20 2.08 2.41 2.65 2.80 2.97 2.73 2.57 2.22 2.07 1.89 1.77 1.79 1.60 1.76 1.85 1.92 2.05 2.29 2.34 2.84
4.61 5.43 5.86 5.97 5.59 5.18 4.81 4.34 4.15 3.83 3.47 3.09 2.65 2.34 2.16 2.08 1.85 1.92 1.72 1.68 1.88 2.08 2.12 2.25 2.42 2.40 2.34 2.44 2.15 2.02 1.85 1.65 1.70 1.74 1.58 1.54 1.52 1.56 1.76 1.99 2.20 1.92 2.44
4.69 5.61 5.96 5.71 5.13 4.68 4.27 3.78 3.41 3.07 2.82 2.70 2.39 2.08 1.99 1.92 1.87 2.03 1.76 1.90 1.93 2.01 2.04 2.06 2.16 2.09 1.87 2.02 2.34 2.15 1.74 1.57 1.57 1.51 1.51 1.59 1.43 1.52 1.76 1.99 2.18 2.26 2.07
4.05 4.79 5.08 4.74 4.10 3.51 3.24 3.08 2.89 2.79 2.48 2.29 2.19 2.09 1.82 1.82 1.78 1.77 1.85 1.61 1.64 1.78 1.73 1.79 2.10 2.06 1.78 1.87 2.22 2.34 2.07 2.03 1.75 1.28 1.38 1.52 1.49 1.60 1.75 1.84 2.16 2.40 2.31
3.50 3.49 3.60 3.50 3.00 2.65 2.55 2.54 2.49 2.56 2.39 2.15 2.03 1.89 1.65 1.58 1.49 1.52 1.55 1.57 1.66 1.58 1.66 1.77 1.87 1.98 1.86 1.72 1.81 2.27 2.20 2.01 1.78 1.55 1.38 1.36 1.49 1.72 1.81 1.94 1.99 2.09 2.18
2.62 2.42 2.41 2.50 2.33 2.27 2.17 2.20 2.08 1.93 1.88 1.78 1.78 1.74 1.64 1.52 1.43 1.33 1.37 1.40 1.52 1.51 1.73 1.55 1.64 1.84 1.87 1.66 1.70 1.84 1.89 1.91 1.92 1.71 1.46 1.33 1.37 1.48 1.68 1.74 1.92 2.08 2.12
1.72 1.76 1.92 2.18 2.21 2.09 2.03 2.15 2.17 1.89 1.72 1.62 1.64 1.72 1.62 1.52 1.42 1.30 1.32 1.41 1.47 1.51 1.55 1.57 1.78 1.77 1.70 1.66 1.68 1.76 1.83 1.83 1.73 1.73 1.66 1.43 1.34 1.23 1.37 1.62 1.86 2.07 2.02
1.15 1.27 1.48 1.89 2.08 1.94 1.88 1.94 1.92 1.85 1.78 1.64 1.54 1.55 1.54 1.49 1.49 1.49 1.40 1.48 1.47 1.48 1.47 1.49 1.63 1.67 1.69 1.73 1.65 1.61 1.76 1.84 1.77 1.81 1.72 1.50 1.36 1.17 1.19 1.39 1.75 2.04 2.10